Location: ??????
(41.3164°N, 22.6615°E)
Time: 09:00:50
(UTC+00:00)

Cosmos 2322 Rocket - Pass Details

Date: 16 October 2021
Orbit: 832 x 852 km, 71.0° (Epoch: 07 December)

Event Time Altitude Azimuth Distance (km) Brightness Sun altitude
Rises 18:19:07 0° 200° (SSW) 3,362 5.4 -29.2°
Reaches altitude 10° 18:21:32 10° 199° (SSW) 2,431 4.6 -29.6°
Enters shadow 18:22:41 17° 199° (SSW) 1,997 4.1 -29.9°
